GW3602 Weather Reports


Display with metric or nautical units.
time (UTC)temp
F
wind
direction
speed
MPH
gust
MPH
rain 1hr
in
rain 24hr
in
rain mn
in
humidity
%
barometer
mb
20260903043021 80 309 0.0 4.0 0.00 0.00 0.00 73 1015.3
20260903041530 80 237 0.0 4.0 0.00 0.00 0.00 73 1015.2
20260903040029 81 252 1.0 6.0 0.00 0.00 0.00 72 1015.0
20260903034532 81 247 1.0 5.0 0.00 0.00 0.00 72 1014.8
20260903033014 81 276 1.0 5.0 0.00 0.00 0.00 72 1014.5
20260903031522 81 173 0.0 4.0 0.00 0.00 0.00 72 1014.8
20260903030037 81 151 1.0 6.0 0.00 0.00 0.00 72 1015.3
20260903024539 81 189 1.0 5.0 0.00 0.00 0.00 72 1015.5
20260903023013 81 144 1.0 4.0 0.00 0.00 0.00 72 1015.7
20260903021525 82 225 1.0 4.0 0.00 0.00 0.00 72 1015.9
20260903020005 82 248 1.0 4.0 0.00 0.00 0.00 72 1015.8
20260903014505 82 219 0.0 3.0 0.00 0.00 0.00 71 1015.6
20260903013007 82 75 0.0 3.0 0.00 0.00 0.00 71 1015.9
20260903011532 82 168 0.0 2.0 0.00 0.00 0.00 71 1015.9
20260903010021 83 287 0.0 1.0 0.00 0.00 0.00 70 1016.0
20260903004504 83 287 0.0 2.0 0.00 0.00 0.00 69 1015.7
20260903003008 84 236 0.0 1.0 0.00 0.00 0.00 67 1015.7
20260903001511 85 198 0.0 1.0 0.00 0.00 0.00 66 1015.6
20260903000017 85 300 0.0 2.0 0.00 0.00 0.00 64 1015.5
20260902234523 86 161 0.0 2.0 0.00 0.00 0.00 63 1015.5
20260902233008 87 228 0.0 3.0 0.00 0.00 0.00 61 1015.5
20260902231515 88 158 0.0 3.0 0.00 0.00 0.00 59 1015.6
20260902230015 90 210 0.0 3.0 0.00 0.00 0.00 57 1015.6
20260902224517 90 169 1.0 6.0 0.00 0.00 0.00 57 1015.6
20260902223028 91 129 1.0 6.0 0.00 0.00 0.00 56 1015.6
20260902221505 91 238 1.0 5.0 0.00 0.00 0.00 57 1015.5
20260902220010 91 198 1.0 5.0 0.00 0.00 0.00 58 1015.4
20260902214518 90 278 1.0 6.0 0.00 0.00 0.00 58 1015.4
20260902213022 90 214 1.0 5.0 0.00 0.00 0.00 61 1015.5
20260902211527 92 235 3.0 9.0 0.00 0.00 0.00 57 1015.7
20260902210037 91 221 1.0 5.0 0.00 0.00 0.00 59 1015.8
20260902204533 91 145 4.0 8.0 0.00 0.00 0.00 58 1015.8
20260902203016 91 261 1.0 8.0 0.00 0.00 0.00 55 1016.0
20260902201531 92 297 2.0 4.0 0.00 0.00 0.00 55 1016.1
20260902200028 91 281 3.0 7.0 0.00 0.00 0.00 54 1016.3
20260902194533 90 171 1.0 6.0 0.00 0.00 0.00 55 1016.4
20260902193014 91 309 4.0 7.0 0.00 0.00 0.00 53 1016.5
20260902191524 92 266 2.0 7.0 0.00 0.00 0.00 50 1016.6
20260902190026 92 217 2.0 8.0 0.00 0.00 0.00 52 1016.7
20260902184531 93 239 2.0 5.0 0.00 0.00 0.00 54 1016.7
20260902183043 91 283 0.0 3.0 0.00 0.00 0.00 55 1016.9
20260902181520 93 155 0.0 6.0 0.00 0.00 0.00 54 1017.1
20260902180026 92 248 2.0 5.0 0.00 0.00 0.00 55 1017.2
20260902174530 92 169 2.0 6.0 0.00 0.00 0.00 58 1017.5
20260902173031 92 105 2.0 5.0 0.00 0.00 0.00 56 1017.6
20260902171531 91 220 2.0 8.0 0.00 0.00 0.00 57 1017.8
20260902170020 90 294 2.0 6.0 0.00 0.00 0.00 57 1017.9
20260902164528 89 245 2.0 9.0 0.00 0.00 0.00 59 1017.9
20260902163029 89 154 2.0 8.0 0.00 0.00 0.00 58 1018.1
20260902161533 88 292 2.0 8.0 0.00 0.00 0.00 62 1018.1
20260902160035 88 300 2.0 7.0 0.00 0.00 0.00 59 1018.2
20260902154532 89 318 2.0 6.0 0.00 0.00 0.00 62 1018.4
20260902153026 87 210 0.0 5.0 0.00 0.00 0.00 65 1018.5
20260902151528 86 273 1.0 7.0 0.00 0.00 0.00 67 1018.5
20260902150029 86 321 1.0 3.0 0.00 0.00 0.00 69 1018.5
20260902144535 86 281 2.0 6.0 0.00 0.00 0.00 69 1018.3
20260902143012 84 266 0.0 5.0 0.00 0.00 0.00 71 1018.2
20260902141520 84 266 1.0 3.0 0.00 0.00 0.00 73 1018.2
20260902140013 83 186 1.0 3.0 0.00 0.00 0.00 74 1018.0
20260902134515 82 143 2.0 6.0 0.00 0.00 0.00 76 1017.9
20260902133013 81 271 1.0 4.0 0.00 0.00 0.00 77 1018.0
20260902131513 80 302 1.0 3.0 0.00 0.00 0.00 79 1017.9
20260902130016 78 161 0.0 3.0 0.00 0.00 0.00 81 1018.1
20260902124516 77 118 1.0 3.0 0.00 0.00 0.00 83 1018.1
20260902123018 76 143 0.0 3.0 0.00 0.00 0.00 85 1018.0
20260902121518 75 196 0.0 2.0 0.00 0.00 0.00 87 1017.9
20260902120017 74 179 0.0 2.0 0.00 0.00 0.00 88 1017.9
20260902114516 74 139 0.0 2.0 0.00 0.00 0.00 89 1017.8
20260902113017 73 157 0.0 4.0 0.00 0.00 0.00 89 1017.3
20260902111523 73 98 0.0 2.0 0.00 0.00 0.00 89 1017.2
20260902110019 73 138 0.0 1.0 0.00 0.00 0.00 89 1017.3
20260902104523 74 114 0.0 2.0 0.00 0.00 0.00 89 1017.2
20260902103036 74 150 0.0 2.0 0.00 0.00 0.00 89 1017.1
20260902101533 74 143 0.0 3.0 0.00 0.00 0.00 88 1017.1
20260902100024 74 146 0.0 3.0 0.00 0.00 0.00 88 1017.1
20260902094530 74 203 0.0 4.0 0.00 0.00 0.00 88 1017.2
20260902093031 74 218 1.0 4.0 0.00 0.00 0.00 88 1017.2
20260902091536 74 149 0.0 5.0 0.00 0.00 0.00 88 1017.2
20260902090023 74 184 0.0 2.0 0.00 0.00 0.00 88 1017.5
20260902084545 75 143 0.0 3.0 0.00 0.00 0.00 87 1017.4
20260902083039 75 143 0.0 2.0 0.00 0.00 0.00 87 1017.4
20260902081510 75 164 0.0 3.0 0.00 0.00 0.00 87 1017.4
20260902080019 74 113 1.0 2.0 0.00 0.00 0.00 87 1017.3
20260902074504 74 110 0.0 2.0 0.00 0.00 0.00 86 1017.3
20260902073004 74 136 0.0 1.0 0.00 0.00 0.00 85 1017.4
20260902071509 74 172 0.0 1.0 0.00 0.00 0.00 85 1017.4
20260902070017 74 130 0.0 1.0 0.00 0.00 0.00 85 1017.4
20260902064525 74 101 0.0 1.0 0.00 0.00 0.00 84 1017.5
20260902063004 74 126 0.0 1.0 0.00 0.00 0.00 84 1017.6
20260902061505 74 142 0.0 1.0 0.00 0.00 0.00 84 1017.7
20260902060010 74 129 0.0 1.0 0.00 0.00 0.00 84 1017.7
20260902054515 74 161 0.0 1.0 0.00 0.00 0.00 84 1017.6
20260902053024 74 145 0.0 0.0 0.00 0.00 0.00 85 1017.5
20260902051503 74 129 0.0 0.0 0.00 0.00 0.00 85 1017.4
20260902050009 74 130 0.0 1.0 0.00 0.00 0.00 84 1017.4
20260902044514 74 130 0.0 1.0 0.00 0.00 0.00 83 1017.3